GW0996 Weather Reports


time (UTC)temp
C
wind
direction
speed
KPH
gust
KPH
rain 1hr
cm
rain 24hr
cm
rain mn
cm
humidity
%
barometer
mb
20260506125055 20 232 3.2 6.4 0.00 6.40 0.15 61 1010.3
20260506124555 20 224 1.6 6.4 0.00 6.40 0.15 63 1010.4
20260506124054 21 249 3.2 6.4 0.00 6.40 0.15 63 1010.2
20260506123555 20 263 3.2 6.4 0.00 6.40 0.15 63 1010.3
20260506122054 20 259 3.2 6.4 0.00 6.40 0.15 63 1010.5
20260506121554 21 208 3.2 6.4 0.00 6.40 0.15 63 1010.3
20260506121054 20 258 0.0 4.8 0.00 6.40 0.15 66 1010.1
20260506120054 20 193 1.6 6.4 0.00 6.40 0.15 67 1010.3
20260506115554 20 102 3.2 6.4 0.00 6.40 0.15 67 1010.4
20260506114554 20 192 3.2 9.7 0.00 6.40 0.15 67 1010.3
20260506114056 20 226 4.8 9.7 0.00 6.40 0.15 65 1010.2
20260506113554 20 49 1.6 9.7 0.00 6.40 0.15 67 1010.4
20260506113055 20 205 3.2 9.7 0.00 6.40 0.15 65 1010.3
20260506112555 20 200 1.6 9.7 0.00 6.40 0.15 65 1010.3
20260506112058 20 193 0.0 6.4 0.00 6.40 0.15 65 1010.2
20260506111554 20 145 3.2 6.4 0.00 6.40 0.15 66 1010.2
20260506111055 20 222 0.0 4.8 0.00 6.40 0.15 66 1010.4
20260506110553 20 168 1.6 4.8 0.00 6.40 0.15 64 1010.4
20260506110055 20 151 0.0 4.8 0.00 6.40 0.15 68 1010.4
20260506105055 20 230 0.0 4.8 0.00 6.40 0.15 68 1010.8
20260506104055 20 197 0.0 3.2 0.00 6.40 0.15 68 1010.7
20260506103055 20 201 1.6 6.4 0.00 6.40 0.15 68 1010.9
20260506102057 20 129 0.0 11.3 0.00 6.40 0.15 73 1010.8
20260506101554 20 138 6.4 9.7 0.00 6.40 0.15 70 1010.9
20260506101100 20 234 0.0 3.2 0.00 6.40 0.15 68 1010.8
20260506100555 19 236 0.0 3.2 0.00 6.40 0.15 67 1010.9
20260506100056 18 145 0.0 3.2 0.00 6.40 0.15 74 1010.8
20260506095556 18 203 0.0 6.4 0.00 6.40 0.15 75 1011.1
20260506095056 17 155 0.0 6.4 0.00 6.40 0.15 76 1010.9
20260506094555 17 120 1.6 4.8 0.00 6.40 0.15 75 1010.8
20260506094057 17 175 0.0 4.8 0.00 6.40 0.15 75 1011.1
20260506093057 16 231 1.6 4.8 0.00 6.40 0.15 77 1010.9
20260506092554 16 239 0.0 1.6 0.00 6.40 0.15 82 1011.0
20260506091555 16 238 0.0 4.8 0.00 6.40 0.15 83 1011.0
20260506090555 16 213 0.0 12.9 0.00 6.40 0.15 81 1010.8
20260506090057 16 136 0.0 12.9 0.00 6.40 0.15 83 1010.8
20260506085555 16 247 1.6 9.7 0.00 6.40 0.15 82 1010.4
20260506085058 16 233 1.6 6.4 0.00 6.40 0.15 84 1010.8
20260506084555 15 132 1.6 6.4 0.00 6.40 0.15 85 1011.0
20260506084057 15 129 3.2 9.7 0.00 6.40 0.15 85 1010.6
20260506083555 15 140 3.2 9.7 0.00 6.40 0.15 86 1010.6
20260506083057 15 103 3.2 4.8 0.00 6.40 0.15 85 1010.8
20260506082055 15 168 0.0 9.7 0.00 6.40 0.15 86 1010.6
20260506081554 15 172 3.2 6.4 0.00 6.40 0.15 86 1010.8
20260506081056 15 176 0.0 6.4 0.00 6.40 0.15 87 1010.7
20260506073055 15 289 1.6 4.8 0.00 6.40 0.15 85 1010.3
20260506072554 15 158 1.6 6.4 0.00 6.40 0.15 85 1010.6
20260506072056 15 299 1.6 6.4 0.00 6.40 0.15 86 1010.5
20260506071056 15 289 6.4 6.4 0.00 6.40 0.15 85 1010.3
20260506070554 15 252 1.6 6.4 0.00 6.40 0.15 85 1010.2
20260506062056 14 175 0.0 11.3 0.08 6.43 0.15 87 1010.4
20260506061553 14 247 1.6 11.3 0.08 6.43 0.15 87 1010.6
20260506061056 14 231 0.0 4.8 0.08 6.43 0.15 88 1010.4
20260506060557 14 258 1.6 9.7 0.08 6.43 0.15 88 1010.3
20260506050553 14 352 0.0 6.4 0.00 6.50 0.08 85 1010.2
20260506045045 14 228 1.6 6.4 0.00 6.53 0.08 84 1010.5
20260506044044 14 23 0.0 6.4 0.00 6.53 0.08 85 1010.2
20260506043543 14 286 0.0 6.4 0.00 6.53 0.08 85 1010.3
20260506042031 14 295 0.0 6.4 0.00 6.58 0.08 86 1010.3
20260506041530 14 186 0.0 9.7 0.00 6.60 0.08 85 1010.3
20260506041032 14 69 3.2 9.7 0.00 6.65 0.08 87 1010.3
20260506040518 14 105 3.2 6.4 0.00 6.65 0.08 87 1010.3
20260506040018 14 250 0.0 1.6 0.00 6.68 0.08 88 1010.5
20260506035517 14 266 1.6 3.2 0.00 6.68 0.08 87 1010.6
20260506034953 14 274 3.2 3.2 0.00 6.68 0.08 86 1010.6
20260506034456 14 271 1.6 3.2 0.00 6.68 0.08 86 1010.5
20260506033956 15 151 0.0 3.2 0.00 6.68 0.08 86 1010.6
20260506033455 15 152 1.6 3.2 0.00 6.68 0.08 86 1010.5
20260506032956 15 137 0.0 6.4 0.00 6.71 0.08 86 1010.4
20260506032443 15 159 0.0 6.4 0.00 6.71 0.08 86 1010.5
20260506031944 15 245 0.0 3.2 0.00 6.71 0.08 87 1010.6
20260506031442 15 233 0.0 3.2 0.00 6.71 0.08 87 1010.7
20260506030917 15 242 0.0 3.2 0.00 6.71 0.08 86 1010.7
20260506025919 15 113 1.6 9.7 0.00 6.71 0.08 87 1010.6
20260506025406 15 157 3.2 9.7 0.00 6.71 0.08 89 1010.5
20260506024907 15 100 1.6 9.7 0.03 6.71 0.08 90 1010.5
20260506024406 15 102 3.2 9.7 0.03 6.73 0.08 90 1010.5
20260506023854 15 312 1.6 9.7 0.03 6.76 0.08 90 1010.6
20260506023355 15 65 1.6 9.7 0.03 6.78 0.08 89 1010.7
20260506022855 15 211 0.0 6.4 0.03 6.78 0.08 90 1010.8
20260506022354 15 129 0.0 6.4 0.03 6.83 0.08 89 1010.6
20260506021356 15 222 0.0 3.2 0.03 6.86 0.08 90 1010.5
20260506020857 15 192 1.6 3.2 0.03 6.88 0.08 90 1010.5
20260506020356 15 247 0.0 3.2 0.03 6.91 0.08 91 1010.8
20260506015856 15 277 0.0 11.3 0.03 6.93 0.08 90 1010.8
20260506015357 15 348 6.4 11.3 0.03 6.93 0.08 90 1010.6
20260506014855 15 123 1.6 4.8 0.00 6.91 0.05 90 1010.6
20260506014344 15 118 1.6 4.8 0.00 6.93 0.05 90 1010.2
20260506013842 15 179 0.0 3.2 0.00 6.93 0.05 90 1010.4
20260506012842 15 30 1.6 6.4 0.00 6.96 0.05 90 1010.7
20260506012343 15 314 1.6 9.7 0.00 6.99 0.05 91 1010.7
20260506010841 15 87 0.0 4.8 0.00 7.04 0.05 91 1011.0
20260506010346 15 278 0.0 3.2 0.00 7.04 0.05 91 1011.2
20260506005344 15 32 0.0 3.2 0.00 7.06 0.05 91 1011.2
20260506004843 15 87 0.0 4.8 0.00 7.06 0.05 91 1011.2
20260506004342 15 251 0.0 4.8 0.00 7.06 0.05 91 1011.1
20260506003843 15 116 0.0 4.8 0.00 7.06 0.05 91 1011.2
20260506003344 15 176 1.6 6.4 0.00 7.06 0.05 92 1011.2
20260506002843 15 115 0.0 6.4 0.00 7.06 0.05 91 1011.1
20260506002343 15 255 0.0 4.8 0.00 7.06 0.05 92 1011.3
20260506001845 15 143 0.0 4.8 0.00 7.06 0.05 92 1011.1
20260506000843 15 125 0.0 4.8 0.00 7.06 0.05 93 1011.2
20260506000347 15 88 0.0 3.2 0.00 7.06 0.05 93 1011.4
20260505235844 15 259 1.6 3.2 0.00 7.06 0.05 93 1011.6
20260505235343 15 141 0.0 3.2 0.00 7.06 0.05 93 1011.6
20260505234846 15 298 0.0 6.4 0.00 7.06 0.05 93 1011.6
20260505234342 15 170 1.6 6.4 0.00 7.06 0.05 93 1011.8
20260505233844 15 109 0.0 6.4 0.00 7.06 0.05 94 1011.8
20260505233347 15 286 0.0 4.8 0.00 7.06 0.05 94 1011.8
20260505232843 15 309 1.6 4.8 0.03 7.06 0.05 94 1011.9
20260505232343 15 255 0.0 0.0 0.03 7.06 0.05 94 1012.0
20260505231845 15 255 0.0 1.6 0.03 7.06 0.05 94 1012.3
20260505231343 15 255 0.0 3.2 0.05 7.06 0.05 94 1012.3
20260505230843 15 204 0.0 3.2 0.05 7.06 0.05 94 1012.1
20260505230347 15 345 0.0 1.6 0.05 7.06 0.05 94 1012.2
20260505225843 15 349 0.0 3.2 0.08 7.06 0.05 94 1012.0
20260505225343 15 17 0.0 3.2 0.08 7.06 0.05 94 1012.2
20260505224846 15 110 3.2 6.4 0.08 7.06 0.05 93 1012.0
20260505224342 15 142 0.0 6.4 0.08 7.06 0.05 93 1012.1
20260505223842 15 152 3.2 4.8 0.08 7.06 0.05 94 1012.4
20260505222820 15 277 0.0 1.6 0.05 7.04 0.05 94 1012.2
20260505222318 14 109 0.0 1.6 0.05 7.04 0.03 95 1012.5
20260505221808 14 251 0.0 3.2 0.05 7.04 0.03 95 1012.4
20260505221307 14 340 0.0 3.2 0.03 7.01 0.00 95 1012.4
20260505220807 13 284 0.0 1.6 0.03 7.01 0.00 94 1012.4
20260505220256 13 151 0.0 0.0 0.03 7.01 0.00 94 1012.5
20260505215755 13 151 0.0 0.0 0.00 6.99 6.99 94 1012.6
20260505215256 13 151 0.0 1.6 0.00 6.99 6.99 94 1012.7
20260505214756 13 150 0.0 1.6 0.00 6.99 6.99 94 1012.7
20260505214254 13 138 0.0 0.0 0.00 6.99 6.99 94 1013.0
20260505213757 13 138 0.0 0.0 0.00 6.99 6.99 94 1013.0
20260505213255 13 138 0.0 0.0 0.00 6.99 6.99 93 1013.1
20260505212257 13 138 0.0 1.6 0.00 6.99 6.99 93 1013.0
20260505211753 13 116 0.0 0.0 0.00 6.99 6.99 93 1013.1
20260505211254 13 116 0.0 0.0 0.00 6.99 6.99 93 1013.1
20260505210756 13 116 0.0 0.0 0.00 6.99 6.99 93 1013.3
20260505210254 13 116 0.0 0.0 0.00 6.99 6.99 93 1013.3
20260505205755 13 116 0.0 0.0 0.00 6.99 6.99 93 1013.2
20260505205308 13 116 0.0 0.0 0.00 6.99 6.99 93 1013.3
20260505204754 13 116 0.0 0.0 0.00 6.99 6.99 93 1013.3
20260505204258 13 116 0.0 3.2 0.00 6.99 6.99 92 1013.3
20260505203759 13 116 0.0 3.2 0.00 6.99 6.99 92 1013.4
20260505203257 13 178 0.0 1.6 0.00 6.99 6.99 92 1013.4
20260505202755 13 166 0.0 1.6 0.03 6.99 6.99 92 1013.3
20260505202259 13 167 0.0 1.6 0.05 6.99 6.99 92 1013.3
20260505201755 13 165 0.0 1.6 0.08 6.99 6.99 92 1013.2
20260505201256 13 163 0.0 3.2 0.10 6.99 6.99 91 1013.0
20260505200759 13 187 1.6 3.2 0.13 6.99 6.99 92 1013.0
20260505200254 14 162 0.0 3.2 0.15 6.99 6.99 92 1013.2
20260505195754 14 169 0.0 3.2 0.20 6.99 6.99 92 1013.3
20260505195256 13 207 1.6 3.2 0.23 6.99 6.99 92 1013.2
20260505194255 13 204 0.0 4.8 0.25 6.99 6.99 92 1013.3
20260505193759 13 197 1.6 4.8 0.30 6.99 6.99 92 1013.1
20260505193255 13 144 0.0 3.2 0.33 6.99 6.99 92 1013.1
20260505192747 13 164 0.0 3.2 0.33 6.96 6.96 92 1013.0
20260505192243 13 168 0.0 3.2 0.33 6.93 6.96 92 1013.2
20260505191744 14 176 0.0 3.2 0.36 6.91 6.93 92 1013.1
20260505191245 14 162 0.0 4.8 0.36 6.88 6.88 92 1013.0
20260505190744 14 137 1.6 4.8 0.41 6.86 6.86 92 1012.9
20260505185748 14 128 0.0 6.4 0.41 6.78 6.78 94 1012.8
20260505185244 14 92 1.6 4.8 0.38 6.76 6.76 94 1012.8
20260505184743 15 152 0.0 1.6 0.36 6.73 6.73 95 1013.1
20260505183241 15 132 0.0 3.2 0.28 6.65 6.65 95 1012.8
20260505182747 14 135 0.0 3.2 0.25 6.63 6.63 95 1012.6
20260505182243 14 171 0.0 3.2 0.23 6.60 6.60 95 1012.6
20260505181744 14 185 0.0 3.2 0.18 6.55 6.55 95 1012.4
20260505181245 15 133 0.0 3.2 0.18 6.53 6.53 95 1012.4
20260505180743 15 144 0.0 1.6 0.10 6.45 6.48 95 1012.3
20260505180242 15 134 0.0 1.6 0.13 6.43 6.43 95 1012.6
20260505175744 15 153 0.0 0.0 0.18 6.38 6.40 95 1012.3
20260505175241 15 153 0.0 0.0 0.20 6.38 6.38 95 1012.3
20260505174745 15 153 0.0 0.0 0.28 6.38 6.38 95 1012.3
20260505174246 15 151 0.0 0.0 0.43 6.38 6.38 94 1012.2
20260505173745 15 151 0.0 0.0 0.46 6.38 6.38 95 1012.5
20260505173243 15 151 0.0 0.0 0.69 6.38 6.38 95 1012.2
20260505172744 15 149 0.0 1.6 0.91 6.38 6.38 94 1012.4
20260505172242 15 149 0.0 1.6 1.07 6.38 6.38 94 1012.1
20260505171742 15 153 0.0 1.6 1.30 6.38 6.38 94 1012.2
20260505171229 15 154 0.0 1.6 1.68 6.35 6.35 94 1012.2
20260505170730 15 155 0.0 1.6 2.24 6.35 6.35 94 1012.3
20260505170231 15 154 0.0 1.6 2.74 6.30 6.32 94 1012.3
20260505165718 15 117 0.0 3.2 3.00 6.20 6.20 94 1012.5
20260505165220 15 117 0.0 3.2 3.15 6.17 6.17 94 1012.4
20260505164715 15 125 0.0 6.4 3.38 6.10 6.10 94 1012.5
20260505164207 15 264 3.2 6.4 3.84 5.94 5.94 94 1012.3
20260505163706 15 128 3.2 4.8 4.09 5.89 5.89 94 1012.2
20260505163205 15 322 0.0 4.8 4.09 5.64 5.69 94 1012.5
20260505162656 15 320 3.2 4.8 4.37 5.44 5.44 94 1012.3
20260505162153 15 326 1.6 3.2 4.42 5.26 5.28 94 1012.4
20260505161657 15 316 0.0 6.4 4.19 5.03 5.05 94 1012.3
20260505161154 15 311 1.6 6.4 3.68 4.50 4.62 94 1012.6
20260505160655 15 290 0.0 6.4 3.20 4.01 4.09 93 1012.5
20260505160156 15 303 0.0 6.4 2.64 3.45 3.51 93 1012.3
20260505153153 16 325 6.4 9.7 0.76 1.55 1.55 90 1011.9
20260505152654 16 331 4.8 6.4 0.28 1.07 1.09 88 1011.8
20260505151647 17 322 0.0 0.0 0.08 0.84 0.84 89 1011.7
20260505151142 17 322 0.0 3.2 0.05 0.81 0.81 87 1011.4
20260505150641 17 285 0.0 4.8 0.05 0.81 0.81 87 1011.6
20260505150142 17 311 0.0 4.8 0.05 0.81 0.81 85 1011.7
20260505140642 18 6 0.0 6.4 0.00 0.76 0.76 77 1011.8
20260505130142 18 170 3.2 12.9 0.00 0.76 0.76 76 1012.3